Location: Chippewa Lake
(41.0698°N, 81.9010°W)
Time: 00:36:15
(UTC+00:00)

DELTA 2 R/B (1) - Pass Details

Date: 09 May 2021
Orbit: 790 x 802 km, 39.6° (Epoch: 24 June)

Event Time Altitude Azimuth Distance (km) Brightness Sun altitude
Rises 01:31:36 0° 272° (W) 3,289 7.8 -10.6°
Reaches altitude 10° 01:34:06 10° 271° (W) 2,357 6.9 -11.0°
Maximum altitude 01:39:38 74° 187° (S) 823 3.6 -11.8°
Enters shadow 01:44:16 15° 104° (ESE) 2,019 5.1 -12.5°
